Weather History for Eagle Creek, IN

Change the Weather History Date:

Wednesday, April 3, 2013

  Actual Average Record
Temperature  
Mean Temperature 35 °F 49 °F  
Max Temperature 46 °F 59 °F 84 °F (2012)
Min Temperature 24 °F 40 °F 24 °F (2013)
Degree Days  
Heating Degree Days 30 16  
Month to date heating degree days 87 49  
Since 1 July heating degree days 5127 4874  
Cooling Degree Days 0 0  
Month to date cooling degree days 0 0  
Year to date cooling degree days 0 1  
Moisture  
Dew Point 15 °F    
Average Humidity 50    
Maximum Humidity 68    
Minimum Humidity 31    
Precipitation  
Precipitation 0.00 in 0.11 in 2.03 in (2014)
Month to date precipitation 0.00 0.35  
Year to date precipitation 8.40 7.99  
Sea Level Pressure  
Sea Level Pressure 30.36 in    
Wind  
Wind Speed 4 mph (ENE)    
Max Wind Speed 14 mph    
Max Gust Speed 25 mph    
Visibility 10 miles    
Events      
T = Trace of Precipitation, MM = Missing Value Source: NWS Daily Summary

Daily Weather History Graph

Daily Weather History Graph

Search for Another Location

Airport:

Trip Planner

Search our weather history database for the weather conditions in past years. The results will help you decide how hot, cold, wet, or windy it might be!

Date:

Astronomy

Apr. 03, 2013 Rise Set
Actual Time 7:25 AM EDT 8:11 PM EDT
Civil Twilight 6:58 AM EDT 8:39 PM EDT
Nautical Twilight 6:26 AM EDT 9:11 PM EDT
Astronomical Twilight 5:52 AM EDT 9:44 PM EDT
Moon 3:05 AM EDT (4/3) 1:23 PM EDT (4/3)
Length of Visible Light 13h 40m
Length of Day
12h 45m
Last Quarter, 45% of the Moon is Illuminated
Apr 3
Last Quarter
Apr 10
New
Apr 18
First Quarter
Apr 25
Full
May 2
Last Quarter

Hourly Weather History & Observations

Time (EDT) Temp. Windchill Dew Point Humidity Pressure Visibility Wind Dir Wind Speed Gust Speed Precip Events Conditions
12:53 AM 33.1 °F - 15.1 °F 48% 30.30 in 10.0 mi Calm Calm - N/A   Clear
1:53 AM 30.9 °F - 14.0 °F 50% 30.31 in 10.0 mi Calm Calm - N/A   Clear
2:53 AM 30.0 °F - 14.0 °F 51% 30.31 in 10.0 mi Calm Calm - N/A   Clear
3:53 AM 28.0 °F - 15.1 °F 58% 30.32 in 10.0 mi Calm Calm - N/A   Clear
4:53 AM 25.0 °F - 16.0 °F 69% 30.32 in 10.0 mi Calm Calm - N/A   Clear
5:53 AM 26.1 °F - 16.0 °F 66% 30.34 in 10.0 mi Calm Calm - N/A   Clear
6:53 AM 25.0 °F 20.7 °F 16.0 °F 69% 30.34 in 10.0 mi NNE 3.5 mph - N/A   Clear
7:53 AM 28.0 °F - 14.0 °F 56% 30.36 in 10.0 mi Calm Calm - N/A   Clear
8:53 AM 32.0 °F 27.5 °F 15.1 °F 50% 30.41 in 10.0 mi ENE 4.6 mph - N/A   Clear
9:53 AM 36.0 °F 31.1 °F 12.9 °F 39% 30.43 in 10.0 mi ENE 5.8 mph - N/A   Clear
10:53 AM 39.0 °F 33.4 °F 12.9 °F 34% 30.44 in 10.0 mi NE 8.1 mph - N/A   Clear
11:53 AM 39.9 °F - 12.9 °F 33% 30.43 in 10.0 mi Calm Calm - N/A   Clear
12:53 PM 41.0 °F 38.0 °F 14.0 °F 33% 30.43 in 10.0 mi NE 4.6 mph - N/A   Clear
1:53 PM 42.1 °F 37.1 °F 15.1 °F 34% 30.40 in 10.0 mi ENE 8.1 mph - N/A   Clear
2:53 PM 44.1 °F 39.0 °F 16.0 °F 32% 30.38 in 10.0 mi NE 9.2 mph 25.3 mph N/A   Clear
3:53 PM 45.0 °F 39.7 °F 16.0 °F 31% 30.38 in 10.0 mi NNE 10.4 mph 17.3 mph N/A   Clear
4:53 PM 45.0 °F 39.7 °F 17.1 °F 33% 30.38 in 10.0 mi ESE 10.4 mph - N/A   Clear
5:53 PM 45.0 °F 40.6 °F 16.0 °F 31% 30.36 in 10.0 mi East 8.1 mph - N/A   Clear
6:53 PM 45.0 °F 41.8 °F 16.0 °F 31% 30.36 in 10.0 mi ESE 5.8 mph - N/A   Clear
7:53 PM 43.0 °F 39.5 °F 16.0 °F 34% 30.35 in 10.0 mi East 5.8 mph - N/A   Clear
8:53 PM 42.1 °F 38.4 °F 16.0 °F 35% 30.32 in 10.0 mi ENE 5.8 mph - N/A   Clear
9:53 PM 39.9 °F 37.8 °F 17.1 °F 40% 30.32 in 10.0 mi ENE 3.5 mph - N/A   Clear
10:53 PM 37.9 °F - 18.0 °F 45% 30.34 in 10.0 mi Calm Calm - N/A   Clear
11:53 PM 37.0 °F 34.5 °F 19.0 °F 48% 30.34 in 10.0 mi East 3.5 mph - N/A   Clear